[[{"header":{"parameterUnit":"m.s-1","parameterCategory":1,"la1":30.2991,"la2":30.254,"lo1":-89.0895,"lo2":-89.0444,"dy":0.0017,"dx":0.0017,"nx":28,"ny":28,"refTime":"2024-03-08T09:00:00:Z","depth":0,"parameterNumber":2,"parameterNumberName":"U-component_of_WINDS"},"data":[0,0,0,0,0,0,0,0,0,0,0,0,0,0,0,0,0,0,0,0,0,0,0,0,0,0,0,0,0,0,0,0,0,0,0,0,0,0,0,0,0,0,0,0,0,0,0,0,0,0,0,0,0,0,0,0,0,0,4.2057,4.2058,0,4.2092,4.2092,4.2093,4.2041,4.2039,4.2037,4.2036,4.2074,4.2077,4.208,0,0,0,0,0,0,0,0,0,0,0,0,0,4.1952,4.1954,4.2057,4.2058,4.2058,4.2092,4.2092,4.2093,4.2041,4.2039,4.2037,4.2035,4.2074,4.2077,4.208,0,0,0,0,0,0,0,0,0,0,0,0,0,4.1994,4.1955,4.2057,4.2036,4.2035,4.2092,4.2092,4.2093,4.2042,4.2039,4.2036,4.2034,4.2072,4.2076,4.208,4.2161,0,0,4.2093,4.2095,0,0,0,0,0,0,0,0,4.1991,4.1997,4.2039,4.2038,4.2036,4.2059,4.207,4.2116,4.2042,4.2039,4.2035,4.2032,4.2072,4.2076,4.2088,4.2162,4.2164,4.2093,4.2096,4.2098,4.2099,0,0,0,0,0,0,0,4.1988,4.1996,4.2071,4.204,4.2038,4.2027,4.203,4.2078,4.2071,4.2039,4.2036,4.204,4.2071,4.2085,4.2089,4.2165,4.2093,4.2097,4.2099,4.2101,4.2311,4.2314,0,0,0,0,0,0,4.1987,4.1994,4.207,4.2072,4.2006,4.2031,4.2034,4.2055,4.207,4.2069,4.2042,4.2038,4.2079,4.2084,4.209,4.2188,4.2098,4.2101,4.2104,4.2308,4.2312,4.2315,0,0,0,0,0,0,4.1985,4.1995,4.2068,4.2032,4.204,4.2036,4.2059,4.2057,4.2071,4.2072,4.2071,4.2058,4.2077,4.2084,4.2144,4.2188,4.2103,4.2107,4.2305,4.2309,4.2314,4.2382,0,0,0,0,0,0,4.1983,4.1994,4.2023,4.2033,4.2043,4.212,4.2062,4.2059,4.2077,4.2071,4.2086,4.2086,4.2075,4.2139,4.2148,4.2192,4.211,4.2301,4.2307,4.2312,4.2376,4.2389,4.2399,0,0,0,0,0,4.1979,4.204,4.2024,4.2034,4.2078,4.2123,4.2129,4.2114,4.2081,4.2111,4.2113,4.2086,4.2182,4.2145,4.2156,4.2202,4.2298,4.2305,4.2312,4.2371,4.2386,4.2399,0,0,0,0,0,0,4.2035,4.2041,4.2023,4.2089,4.2106,4.2114,4.2151,4.213,4.2157,4.215,4.2132,4.2136,4.2201,4.2207,4.2166,4.2283,4.2235,4.2244,4.2276,4.2291,4.2302,4.2299,4.2114,0,0,0,0,0,4.2056,4.209,4.2094,4.2152,4.2161,4.2155,4.2174,4.2162,4.2178,4.2185,4.2191,4.221,4.2245,4.2268,4.23,4.2377,4.2381,4.2414,4.2426,4.2436,4.2444,4.249,4.2505,4.2339,4.2338,4.2338,0,0,4.2097,4.2105,4.2127,4.2164,4.2175,4.2213,4.2161,4.2203,4.2232,4.2192,4.2249,4.2255,4.2275,4.2345,4.2376,4.2352,4.2492,4.2445,4.2452,4.2456,4.2499,4.2514,4.2529,4.2343,4.2342,4.2342,0,0,4.2193,4.2201,4.2252,4.2266,4.2284,4.228,4.2293,4.2305,4.2307,4.2364,4.2336,4.2372,4.2431,4.2448,4.2464,4.2572,4.2549,4.2583,4.2644,4.2689,4.2702,4.2714,4.2755,4.277,4.2592,4.2592,4.2592,0,4.2243,4.2298,4.2281,4.2327,4.2345,4.2311,4.2365,4.2378,4.2407,4.2421,4.2394,4.2471,4.2481,4.2557,4.2584,4.2597,4.2613,4.2581,4.2701,4.2713,4.2724,4.2763,4.2778,4.2596,4.2596,4.2595,4.2595,0,4.2361,4.24,4.2439,4.2468,4.2491,4.254,4.2533,4.2558,4.2546,4.2546,4.2607,4.262,4.2655,4.2672,4.2659,4.2747,4.2732,4.2704,4.2655,4.2744,4.2781,4.2795,4.2602,4.26,4.2599,4.2598,0,0,4.2491,4.2512,4.2527,4.2541,4.2561,4.2592,4.2642,4.2676,4.27,4.2722,4.2765,4.2818,4.2793,4.2812,4.2801,4.284,4.2929,4.2807,4.2808,4.2831,4.3031,4.3053,4.307,4.2914,4.2917,4.2919,4.303,0,4.2589,4.2672,4.2661,4.2743,4.2781,4.2752,4.2795,4.2814,4.2817,4.2851,4.2855,4.2894,4.2856,4.2868,4.2905,4.291,4.2969,4.2902,4.2957,4.2959,4.2953,4.3089,4.3112,4.3215,4.3044,4.3046,4.3048,0,4.2713,4.274,4.2826,4.2844,4.2859,4.2898,4.2932,4.2964,4.2986,4.2986,4.3009,4.2993,4.3046,4.2997,4.3072,4.3026,4.3049,4.3055,4.3059,4.3064,4.3009,4.31,4.3248,4.3264,4.307,4.3068,4.3067,0,4.2802,4.286,4.292,4.2933,4.2954,4.2984,4.2994,4.3013,4.3036,4.3066,4.3082,4.3118,4.3138,4.3167,4.3163,4.3127,4.324,4.319,4.3244,4.3244,4.3268,4.3267,4.3424,4.3281,4.3281,4.3281,4.328,0,4.2913,4.2967,4.2961,4.2998,4.3059,4.3047,4.3109,4.3116,4.3135,4.3175,4.3152,4.319,4.3181,4.322,4.3217,4.3282,4.329,4.3294,4.3292,4.3296,4.3296,4.3311,4.3304,4.3285,4.3284,4.3283,4.3282,0,4.3023,4.302,4.3084,4.31,4.3106,4.3151,4.3166,4.3202,4.3204,4.3256,4.3267,4.3271,4.3316,4.3315,4.3366,4.3364,4.3444,4.3434,4.3437,4.3435,4.3489,4.3485,4.3662,4.3686,4.3526,4.3528,4.3529,0,4.3094,4.3135,4.3157,4.3182,4.3194,4.3234,4.3259,4.325,4.3276,4.3307,4.3341,4.3384,4.3418,4.3493,4.3502,4.3542,4.3534,4.3593,4.3539,4.3543,4.3537,4.3535,4.3541,4.3603,4.3605,4.3607,4.3608,0,4.3222,4.322,4.3254,4.329,4.332,4.3347,4.3373,4.3395,4.339,4.3422,4.3467,4.3494,4.3548,4.3592,4.3632,4.3645,4.3628,4.3625,4.364,4.3644,4.3645,4.3648,4.3467,4.3621,4.3619,4.3618,4.3618,4.3617,4.3315,4.3352,4.3374,4.3415,4.3434,4.3459,4.3495,4.3503,4.3541,4.3583,4.3577,4.3629,4.3655,4.3706,4.3724,4.3767,4.3746,4.3767,4.3772,4.3778,4.3785,4.3638,4.3774,4.3773,4.3773,4.3773,4.3772,0,4.3444,4.3457,4.3495,4.3532,4.3566,4.3545,4.3574,4.3603,4.365,4.3674,4.3709,4.3765,4.3809,4.3823,4.3866,4.3898,4.3891,4.391,4.3908,4.3912,4.38,4.3784,4.3915,4.3915,4.3915,4.3915,4.3915,4.3915,4.3514,4.3577,4.3578,4.3651,4.3664,4.3715,4.3734,4.3759,4.3779,4.3841,4.3878,4.3886,4.3908,4.3954,4.3995,4.3998,4.4016,4.4039,4.4039,4.3934,4.392,4.3906,4.389,4.4042,4.4043,4.4148,4.4149,4.4149]},{"header":{"parameterUnit":"m.s-1","parameterCategory":1,"la1":30.2991,"la2":30.254,"lo1":-89.0895,"lo2":-89.0444,"dy":0.0017,"dx":0.0017,"nx":28,"ny":28,"refTime":"2024-03-08T09:00:00:Z","depth":0,"parameterNumber":3,"parameterNumberName":"V-component_of_WINDS"},"data":[0,0,0,0,0,0,0,0,0,0,0,0,0,0,0,0,0,0,0,0,0,0,0,0,0,0,0,0,0,0,0,0,0,0,0,0,0,0,0,0,0,0,0,0,0,0,0,0,0,0,0,0,0,0,0,0,0,0,0.3387,0.3391,0,0.3768,0.3772,0.3777,0.388,0.3878,0.3876,0.3874,0.4272,0.4285,0.4297,0,0,0,0,0,0,0,0,0,0,0,0,0,0.2754,0.2765,0.3386,0.3391,0.3396,0.3767,0.3772,0.3778,0.3881,0.3878,0.3875,0.3873,0.4268,0.4283,0.4298,0,0,0,0,0,0,0,0,0,0,0,0,0,0.3071,0.2769,0.3386,0.3492,0.3505,0.3766,0.3773,0.3779,0.3881,0.3878,0.3874,0.3871,0.4263,0.4282,0.43,0.4485,0,0,0.4359,0.4367,0,0,0,0,0,0,0,0,0.3053,0.3095,0.3472,0.3485,0.35,0.3773,0.3696,0.4016,0.3882,0.3739,0.3874,0.387,0.4109,0.4141,0.422,0.4504,0.4521,0.436,0.4372,0.438,0.4386,0,0,0,0,0,0,0,0.3031,0.3079,0.3538,0.3477,0.3495,0.3523,0.3564,0.3757,0.3939,0.3751,0.3759,0.3803,0.4117,0.4201,0.423,0.4527,0.436,0.4377,0.4389,0.4396,0.4982,0.4986,0,0,0,0,0,0,0.299,0.306,0.3526,0.3549,0.3264,0.3537,0.3583,0.3689,0.3937,0.3971,0.3805,0.3806,0.4171,0.4208,0.4245,0.4478,0.438,0.4398,0.4409,0.4978,0.4983,0.4987,0,0,0,0,0,0,0.2976,0.3031,0.351,0.3307,0.337,0.3551,0.3669,0.3698,0.3783,0.3977,0.4011,0.3858,0.4169,0.4218,0.4424,0.4493,0.4406,0.4424,0.4973,0.498,0.4985,0.4945,0,0,0,0,0,0,0.2957,0.3025,0.3096,0.3308,0.338,0.3681,0.3674,0.3708,0.3815,0.382,0.4036,0.4069,0.417,0.4395,0.4443,0.4518,0.4439,0.4968,0.4976,0.4983,0.4942,0.495,0.4956,0,0,0,0,0,0.2934,0.3071,0.3099,0.3154,0.3472,0.3685,0.3727,0.3839,0.382,0.3894,0.4018,0.4062,0.4477,0.4415,0.447,0.4552,0.4964,0.4974,0.4983,0.4938,0.4948,0.4956,0,0,0,0,0,0,0.2866,0.3101,0.3134,0.3343,0.3493,0.3702,0.3799,0.3846,0.4007,0.4005,0.4139,0.4187,0.4385,0.4489,0.4416,0.4744,0.4722,0.4742,0.4669,0.468,0.4687,0.4659,0.4455,0,0,0,0,0,0.2875,0.3026,0.3224,0.3389,0.3462,0.3617,0.3714,0.3786,0.3948,0.4013,0.4153,0.4311,0.4477,0.4584,0.4747,0.4956,0.5006,0.5039,0.5046,0.5051,0.5069,0.5187,0.5205,0.5018,0.5018,0.5018,0,0,0.2896,0.3042,0.313,0.3379,0.3504,0.3659,0.367,0.3834,0.3951,0.4039,0.4242,0.435,0.4535,0.4742,0.4841,0.4836,0.5131,0.5063,0.5066,0.5081,0.5199,0.5216,0.5232,0.5024,0.5023,0.5022,0,0,0.3013,0.3138,0.329,0.3413,0.3601,0.3702,0.3738,0.394,0.4014,0.4219,0.4288,0.443,0.4713,0.4842,0.4944,0.5107,0.5154,0.5156,0.5197,0.5311,0.5326,0.5339,0.5399,0.5418,0.5172,0.5172,0.5172,0,0.3016,0.3251,0.3362,0.3523,0.3631,0.3713,0.3869,0.3984,0.4216,0.429,0.4279,0.4634,0.4765,0.5004,0.5043,0.5123,0.517,0.5134,0.5314,0.5329,0.5343,0.5402,0.5423,0.5172,0.5172,0.5172,0.5172,0,0.3246,0.3407,0.3507,0.3726,0.3845,0.4001,0.4139,0.4246,0.4307,0.441,0.4618,0.4776,0.4973,0.5035,0.5098,0.5284,0.5274,0.5286,0.5268,0.5358,0.5416,0.5439,0.517,0.5171,0.5171,0.5171,0,0,0.3335,0.361,0.3645,0.3745,0.3956,0.4084,0.4245,0.4434,0.4524,0.4681,0.482,0.5056,0.5068,0.5184,0.5262,0.5362,0.5481,0.5363,0.5369,0.5381,0.5697,0.5688,0.5712,0.5512,0.5517,0.552,0.5682,0,0.348,0.3767,0.3871,0.4109,0.426,0.4339,0.448,0.4625,0.4725,0.4869,0.4981,0.5146,0.5149,0.522,0.5321,0.5445,0.5547,0.5435,0.5646,0.5652,0.5599,0.5742,0.5733,0.5878,0.5705,0.5709,0.5712,0,0.3688,0.3844,0.4095,0.4286,0.4354,0.4478,0.4659,0.4795,0.4962,0.5028,0.5155,0.5226,0.5399,0.5366,0.5607,0.5528,0.562,0.5694,0.5702,0.5729,0.5689,0.5774,0.5927,0.5949,0.5748,0.5745,0.5742,0,0.3729,0.4002,0.4187,0.427,0.4498,0.4583,0.4682,0.4845,0.4952,0.5111,0.5182,0.536,0.5458,0.5595,0.5712,0.5677,0.5943,0.592,0.6005,0.6002,0.606,0.6055,0.6232,0.6115,0.6114,0.6114,0.6114,0,0.3882,0.4033,0.4208,0.4323,0.4495,0.4613,0.4781,0.4885,0.5029,0.5167,0.5247,0.5375,0.552,0.5668,0.5761,0.5947,0.599,0.605,0.6073,0.6045,0.6037,0.6109,0.6103,0.612,0.6119,0.6117,0.6116,0,0.3958,0.4081,0.4289,0.4486,0.4539,0.4657,0.4827,0.4942,0.5043,0.5217,0.5264,0.5425,0.5603,0.5732,0.5962,0.6024,0.6224,0.6247,0.6167,0.6179,0.6257,0.6249,0.6489,0.6527,0.6381,0.6382,0.6383,0,0.4048,0.4166,0.4374,0.447,0.4568,0.4723,0.4831,0.4952,0.5062,0.526,0.5351,0.5533,0.5685,0.5965,0.6104,0.6281,0.631,0.6381,0.6337,0.6304,0.6313,0.6305,0.6319,0.6388,0.6389,0.639,0.6391,0,0.4196,0.425,0.4402,0.4575,0.4701,0.4844,0.4988,0.5063,0.521,0.5329,0.551,0.5627,0.586,0.6041,0.623,0.6335,0.6389,0.6403,0.6432,0.6406,0.6355,0.6385,0.6187,0.6398,0.6397,0.6397,0.6396,0.6396,0.4284,0.4392,0.4555,0.4721,0.4841,0.4973,0.5091,0.5206,0.5357,0.5555,0.5617,0.5804,0.5968,0.6227,0.6334,0.6483,0.6482,0.6524,0.6535,0.6544,0.6543,0.6328,0.6518,0.6518,0.6518,0.6518,0.6518,0,0.4437,0.4545,0.4696,0.4893,0.5024,0.5059,0.522,0.5328,0.549,0.5637,0.5784,0.5992,0.6167,0.6318,0.6499,0.659,0.6619,0.6634,0.663,0.6654,0.6534,0.6491,0.6608,0.6608,0.6607,0.6607,0.6607,0.6607,0.4532,0.4717,0.479,0.5036,0.5144,0.5325,0.5414,0.5537,0.5655,0.5882,0.6026,0.6122,0.6272,0.6465,0.6627,0.6667,0.6732,0.6741,0.6787,0.6673,0.6662,0.6652,0.6613,0.6753,0.6753,0.6895,0.6897,0.6897]}]]